Northfield, Minnesota, United States (55057)
Lat: 44.46N, Lon: 93.16W
Wx Zone: MNZ077
Local Info
Past Weather Observations for Today

NOTE: This archive is for the closest National Weather Service station to Northfield. Information may differ from the station used for current weather conditions.

Click here for Long-term Archive

Time Weather Temperature Dewpoint Humidity Pressure Winds Precip Visibility
19:51
Clear
75°F / 24°C 68°F / 20°C 78% 29.86 in
(1011 mb)
ESE 5.8 mph
(ESE 9 kph)
- 10SM
19:31
Clear
75°F / 24°C 68°F / 20°C 78% 29.83 in
(1010 mb)
E 5.8 mph
(E 9 kph)
- 10SM
19:11
Clear
75°F / 24°C 68°F / 20°C 78% 29.83 in
(1010 mb)
E 6.9 mph
(E 11 kph)
- 10SM
18:51
Partly Cloudy
75°F / 24°C 68°F / 20°C 78% 29.83 in
(1010 mb)
E 5.8 mph
(E 9 kph)
- 10SM
18:31
Partly Cloudy
77°F / 25°C 68°F / 20°C 74% 29.83 in
(1010 mb)
E 6.9 mph
(E 11 kph)
- 10SM
18:11
Partly Cloudy
79°F / 26°C 68°F / 20°C 70% 29.83 in
(1010 mb)
E 6.9 mph
(E 11 kph)
- 10SM
17:51
Mostly Cloudy
79°F / 26°C 70°F / 21°C 74% 29.83 in
(1010 mb)
E 6.9 mph
(E 11 kph)
- 10SM
17:31
Clear
81°F / 27°C 70°F / 21°C 70% 29.83 in
(1010 mb)
E 6.9 mph
(E 11 kph)
- 10SM
17:11
Clear
81°F / 27°C 66°F / 19°C 62% 29.83 in
(1010 mb)
ESE 3.5 mph
(ESE 6 kph)
- 10SM
16:51
Partly Cloudy
82°F / 28°C 64°F / 18°C 55% 29.83 in
(1010 mb)
ESE 4.6 mph
(ESE 7 kph)
- 10SM
16:31
Partly Cloudy
82°F / 28°C 64°F / 18°C 55% 29.83 in
(1010 mb)
ESE 3.5 mph
(ESE 6 kph)
- 10SM
16:11
Clear
82°F / 28°C 66°F / 19°C 58% 29.83 in
(1010 mb)
Calm - 10SM
15:51
Clear
82°F / 28°C 64°F / 18°C 55% 29.83 in
(1010 mb)
Calm - 10SM
15:31
Clear
82°F / 28°C 64°F / 18°C 55% 29.83 in
(1010 mb)
Calm - 10SM
15:11
Clear
82°F / 28°C 63°F / 17°C 51% 29.83 in
(1010 mb)
SSE 3.5 mph
(SSE 6 kph)
- 10SM
14:51
Clear
82°F / 28°C 63°F / 17°C 51% 29.83 in
(1010 mb)
Calm - 10SM
14:31
Clear
84°F / 29°C 63°F / 17°C 48% 29.83 in
(1010 mb)
S 5.8 mph
(S 9 kph)
- 10SM
14:10
Partly Cloudy
82°F / 28°C 66°F / 19°C 58% 29.83 in
(1010 mb)
SE 4.6 mph
(SE 7 kph)
- 10SM
13:51
Partly Cloudy
81°F / 27°C 64°F / 18°C 58% 29.86 in
(1011 mb)
S 3.5 mph
(S 6 kph)
- 10SM
13:31
Partly Cloudy
82°F / 28°C 64°F / 18°C 55% 29.83 in
(1010 mb)
SSE 4.6 mph
(SSE 7 kph)
- 10SM
13:11
Partly Cloudy
81°F / 27°C 64°F / 18°C 58% 29.86 in
(1011 mb)
SW 3.5 mph
(SW 6 kph)
- 10SM
12:51
Partly Cloudy
81°F / 27°C 64°F / 18°C 58% 29.86 in
(1011 mb)
SSE 3.5 mph
(SSE 6 kph)
- 10SM
12:31
Mostly Cloudy
81°F / 27°C 66°F / 19°C 62% 29.86 in
(1011 mb)
S 4.6 mph
(S 7 kph)
- 10SM
12:11
Partly Cloudy
81°F / 27°C 66°F / 19°C 62% 29.86 in
(1011 mb)
Calm - 10SM
11:51
Partly Cloudy
79°F / 26°C 66°F / 19°C 65% 29.86 in
(1011 mb)
E 5.8 mph
(E 9 kph)
- 10SM
11:31
Partly Cloudy
79°F / 26°C 66°F / 19°C 65% 29.86 in
(1011 mb)
E 6.9 mph
(E 11 kph)
- 10SM
11:11
Partly Cloudy
79°F / 26°C 66°F / 19°C 65% 29.83 in
(1010 mb)
E 6.9 mph
(E 11 kph)
- 10SM
10:51
Partly Cloudy
79°F / 26°C 66°F / 19°C 65% 29.83 in
(1010 mb)
E 10.4 mph
(E 17 kph)
- 10SM
10:31
Partly Cloudy
77°F / 25°C 66°F / 19°C 69% 29.86 in
(1011 mb)
E 8.1 mph
(E 13 kph)
- 10SM
10:11
Partly Cloudy
77°F / 25°C 66°F / 19°C 69% 29.86 in
(1011 mb)
SE 5.8 mph
(SE 9 kph)
- 10SM
09:51
Partly Cloudy
75°F / 24°C 66°F / 19°C 74% 29.86 in
(1011 mb)
S 4.6 mph
(S 7 kph)
- 10SM
09:31
Partly Cloudy
77°F / 25°C 66°F / 19°C 69% 29.86 in
(1011 mb)
S 3.5 mph
(S 6 kph)
- 10SM
09:11
Clear
75°F / 24°C 66°F / 19°C 74% 29.86 in
(1011 mb)
Calm - 10SM
08:50
Clear
73°F / 23°C 66°F / 19°C 78% 29.86 in
(1011 mb)
E 4.6 mph
(E 7 kph)
- 10SM
08:31
Clear
72°F / 22°C 66°F / 19°C 83% 29.86 in
(1011 mb)
Calm - 10SM
08:11
Clear
70°F / 21°C 66°F / 19°C 88% 29.86 in
(1011 mb)
Calm - 10SM
07:51
Clear
68°F / 20°C 66°F / 19°C 94% 29.83 in
(1010 mb)
NE 5.8 mph
(NE 9 kph)
- 7SM
07:31
Partly Cloudy
Fog And Mist
66°F / 19°C 64°F / 18°C 94% 29.86 in
(1011 mb)
Calm - 5SM
07:11
Mostly Cloudy
Fog And Mist
64°F / 18°C 63°F / 17°C 94% 29.86 in
(1011 mb)
Calm - 3SM
06:51
Mostly Cloudy
Fog And Mist
63°F / 17°C 61°F / 16°C 94% 29.86 in
(1011 mb)
Calm - 1SM
06:31
Clear
Fog And Mist
63°F / 17°C 61°F / 16°C 94% 29.86 in
(1011 mb)
Calm - 3SM
06:11
Clear
Fog And Mist
61°F / 16°C 59°F / 15°C 94% 29.83 in
(1010 mb)
SSE 3.5 mph
(SSE 6 kph)
- 2 1/2SM
05:51
Partly Cloudy
Fog And Mist
61°F / 16°C 59°F / 15°C 94% 29.83 in
(1010 mb)
Calm - 2 1/2SM
05:31
Mostly Cloudy
Fog
61°F / 16°C 59°F / 15°C 94% 29.8 in
(1009 mb)
Calm - 1/2SM
05:11
Overcast
Fog
61°F / 16°C 59°F / 15°C 94% 29.8 in
(1009 mb)
Calm - 1/4SM
04:51
Mostly Cloudy
Fog And Mist
61°F / 16°C 59°F / 15°C 94% 29.8 in
(1009 mb)
Calm - 3/4SM
04:31
Mostly Cloudy
Fog And Mist
61°F / 16°C 59°F / 15°C 94% 29.8 in
(1009 mb)
Calm - 3/4SM
04:11
Obscured
Fog And Mist
61°F / 16°C 59°F / 15°C 94% 29.8 in
(1009 mb)
Calm - 3/4SM
03:51
Clear
Fog And Mist
61°F / 16°C 59°F / 15°C 94% 29.8 in
(1009 mb)
Calm - 5SM
03:31
Clear
Fog And Mist
61°F / 16°C 59°F / 15°C 94% 29.8 in
(1009 mb)
Calm - 3SM
03:11
Clear
Fog And Mist
63°F / 17°C 59°F / 15°C 88% 29.8 in
(1009 mb)
Calm - 4SM
02:51
Clear
Fog And Mist
63°F / 17°C 61°F / 16°C 94% 29.8 in
(1009 mb)
Calm - 3SM
02:31
Clear
Fog And Mist
63°F / 17°C 61°F / 16°C 94% 29.8 in
(1009 mb)
Calm - 3SM
02:11
Clear
Fog And Mist
63°F / 17°C 61°F / 16°C 94% 29.8 in
(1009 mb)
Calm - 5SM
01:51
Clear
64°F / 18°C 63°F / 17°C 94% 29.8 in
(1009 mb)
Calm - 7SM
01:31
Clear
Fog And Mist
63°F / 17°C 61°F / 16°C 94% 29.8 in
(1009 mb)
Calm - 5SM
01:11
Clear
64°F / 18°C 61°F / 16°C 88% 29.8 in
(1009 mb)
Calm - 7SM
00:51
Clear
64°F / 18°C 63°F / 17°C 94% 29.8 in
(1009 mb)
Calm - 7SM
00:31
Clear
64°F / 18°C 63°F / 17°C 94% 29.8 in
(1009 mb)
SW 3.5 mph
(SW 6 kph)
- 7SM
00:11
Clear
Fog And Mist
64°F / 18°C 63°F / 17°C 94% 29.8 in
(1009 mb)
Calm - 5SM
Time Weather Temperature Dewpoint Humidity Pressure Winds Precip Visibility


Weather for websites

WeatherForYou.com, LLC is not responsible for any damages or problems caused by this service. Current weather conditions are obtained from the closest station including government and personal stations which may have varying degrees of accuracy. Weather forecasts are derived from the NOAA NDFD. Like all things, this site belongs to Jesus Christ... He just trusts me to maintain it. If you have any questions or comments email webmaster@weatherforyou.com

Copyright © 2014, WeatherForYou.com LLC. All rights reserved.